Weather History for KCYS - February, 2013

Change the Weather History Date:

Saturday, February 9, 2013

  Actual Average Record
Temperature  
Mean Temperature 26 °F 28 °F  
Max Temperature 32 °F 39 °F 66 °F (1954)
Min Temperature 20 °F 18 °F -21 °F (1933)
Degree Days  
Heating Degree Days 39 36  
Month to date heating degree days 287 332  
Since 1 July heating degree days 4138 4359  
Cooling Degree Days 0 0  
Month to date cooling degree days 0 0  
Year to date cooling degree days 0 0  
Moisture  
Dew Point 19 °F    
Average Humidity 69    
Maximum Humidity 92    
Minimum Humidity 46    
Precipitation  
Precipitation 0.14 in 0.02 in 0.28 in (1934)
Month to date precipitation 0.14 0.13  
Year to date precipitation 0.38 0.46  
Snow  
Snow 1.80 in 0.20 in 2.40 in (2002)
Month to date snowfall 1.8 2.3  
Since 1 July snowfall 30.6 30.9  
Snow Depth 0.00 in    
Sea Level Pressure  
Sea Level Pressure 29.61 in    
Wind  
Wind Speed 15 mph (North)    
Max Wind Speed 26 mph    
Max Gust Speed 35 mph    
Visibility 6 miles    
Events Fog , Snow    
T = Trace of Precipitation, MM = Missing Value Source: NWS Daily Summary

Daily Weather History Graph

Daily Weather History Graph

Search for Another Location

Airport or City:

Trip Planner

Search our weather history database for the weather conditions in past years. The results will help you decide how hot, cold, wet, or windy it might be!

Date:

Astronomy

Feb. 09, 2013 Rise Set
Actual Time 7:01 AM MST 5:26 PM MST
Civil Twilight 6:32 AM MST 5:55 PM MST
Nautical Twilight 5:59 AM MST 6:27 PM MST
Astronomical Twilight 5:27 AM MST 6:59 PM MST
Moon 6:14 AM MST (2/9) 5:12 PM MST (2/9)
Length of Visible Light 11h 22m
Length of Day
10h 25m
Waning Crescent, 0% of the Moon is Illuminated
Feb 9
Waning Crescent
Feb 10
New
Feb 17
First Quarter
Feb 25
Full
Mar 4
Last Quarter

Hourly Weather History & Observations

Time (MST) Temp. Windchill Dew Point Humidity Pressure Visibility Wind Dir Wind Speed Gust Speed Precip Events Conditions
12:53 AM 28.0 °F 18.6 °F 10.9 °F 49% 29.69 in 10.0 mi North 10.4 mph 17.3 mph N/A   Clear
1:53 AM 26.1 °F 12.7 °F 12.9 °F 58% 29.68 in 10.0 mi North 18.4 mph 25.3 mph N/A   Clear
2:53 AM 24.1 °F 10.6 °F 14.0 °F 65% 29.69 in 10.0 mi North 17.3 mph 26.5 mph N/A   Clear
3:53 AM 23.0 °F 9.2 °F 14.0 °F 68% 29.70 in 10.0 mi North 17.3 mph 24.2 mph N/A   Clear
4:53 AM 21.9 °F 9.8 °F 15.1 °F 75% 29.73 in 10.0 mi North 12.7 mph 20.7 mph N/A   Clear
5:53 AM 21.9 °F 11.0 °F 15.1 °F 75% 29.76 in 10.0 mi NNW 10.4 mph 17.3 mph N/A   Clear
6:53 AM 21.0 °F 9.9 °F 16.0 °F 81% 29.75 in 10.0 mi North 10.4 mph - N/A   Clear
7:50 AM 21.2 °F 10.9 °F 17.6 °F 86% 29.65 in 10.0 mi North 9.2 mph - N/A   Scattered Clouds
7:53 AM 21.9 °F 9.2 °F 17.1 °F 82% 29.73 in 10.0 mi North 13.8 mph - N/A   Scattered Clouds
8:09 AM 21.2 °F 10.9 °F 17.6 °F 86% 29.66 in 10.0 mi NNW 9.2 mph - N/A   Mostly Cloudy
8:53 AM 24.1 °F 13.7 °F 19.0 °F 81% 29.74 in 10.0 mi North 10.4 mph - N/A   Overcast
9:10 AM 24.8 °F 12.9 °F 17.6 °F 74% 29.64 in 10.0 mi North 13.8 mph 19.6 mph N/A   Overcast
9:31 AM 26.6 °F 15.2 °F 17.6 °F 69% 29.63 in 10.0 mi North 13.8 mph 21.9 mph N/A   Scattered Clouds
9:41 AM 26.6 °F 15.7 °F 17.6 °F 69% 29.63 in 10.0 mi NNE 12.7 mph 19.6 mph N/A   Mostly Cloudy
9:53 AM 28.0 °F 17.0 °F 19.0 °F 69% 29.72 in 10.0 mi North 13.8 mph 20.7 mph N/A   Mostly Cloudy
10:53 AM 28.0 °F 15.7 °F 19.0 °F 69% 29.71 in 10.0 mi North 17.3 mph 20.7 mph N/A   Overcast
11:53 AM 30.0 °F 19.1 °F 19.0 °F 64% 29.63 in 10.0 mi North 15.0 mph 21.9 mph N/A   Overcast
12:53 PM 30.9 °F 19.4 °F 18.0 °F 59% 29.59 in 10.0 mi NNE 17.3 mph 21.9 mph N/A   Mostly Cloudy
1:53 PM 28.9 °F 19.8 °F 18.0 °F 64% 29.62 in 10.0 mi NNW 10.4 mph - N/A   Overcast
2:10 PM 28.4 °F 17.5 °F 19.4 °F 69% 29.52 in 1.8 mi North 13.8 mph 23.0 mph 0.00 in Snow Light Snow
2:23 PM 26.6 °F 16.2 °F 21.2 °F 80% 29.52 in 0.5 mi North 11.5 mph 19.6 mph 0.00 in Snow Light Snow
2:53 PM 27.0 °F 16.7 °F 21.9 °F 81% 29.62 in 1.0 mi North 11.5 mph - 0.00 in Snow Light Snow
3:07 PM 26.6 °F 17.5 °F 21.2 °F 80% 29.53 in 0.8 mi North 9.2 mph - 0.00 in Snow Light Snow
3:19 PM 26.6 °F 16.2 °F 21.2 °F 80% 29.53 in 0.5 mi North 11.5 mph - 0.01 in Fog , Snow Snow
3:28 PM 24.8 °F 12.9 °F 21.2 °F 86% 29.53 in 0.2 mi NNE 13.8 mph - 0.01 in Fog , Snow Snow
3:35 PM 24.8 °F 14.6 °F 23.0 °F 93% 29.53 in 0.2 mi North 10.4 mph - 0.02 in Fog , Snow Snow
3:53 PM 25.0 °F 13.1 °F 21.9 °F 88% 29.65 in 0.2 mi North 13.8 mph - 0.04 in Fog , Snow Snow
4:21 PM 24.8 °F 12.9 °F 21.2 °F 86% 29.54 in 0.5 mi North 13.8 mph 20.7 mph 0.02 in Fog , Snow Snow
4:30 PM 24.8 °F 12.9 °F 21.2 °F 86% 29.53 in 1.0 mi North 13.8 mph 21.9 mph 0.02 in Snow Light Snow
4:46 PM 24.8 °F 11.9 °F 21.2 °F 86% 29.53 in 1.8 mi North 16.1 mph 21.9 mph 0.02 in Snow Light Snow
4:53 PM 24.1 °F 12.0 °F 21.0 °F 88% 29.65 in 2.5 mi North 13.8 mph 24.2 mph 0.02 in Snow Light Snow
5:04 PM 24.8 °F 12.4 °F 19.4 °F 80% 29.53 in 4.0 mi North 15.0 mph 20.7 mph 0.00 in Snow Light Snow
5:29 PM 23.0 °F 10.6 °F 19.4 °F 86% 29.53 in 10.0 mi North 13.8 mph 24.2 mph 0.00 in   Overcast
5:53 PM 21.9 °F 6.9 °F 19.0 °F 89% 29.66 in 10.0 mi North 19.6 mph 26.5 mph 0.00 in   Overcast
6:53 PM 21.9 °F 5.8 °F 19.0 °F 89% 29.63 in 10.0 mi North 23.0 mph 32.2 mph N/A   Mostly Cloudy
7:02 PM 21.2 °F 4.5 °F 19.4 °F 93% 29.50 in 9.0 mi North 24.2 mph 34.5 mph N/A   Mostly Cloudy
7:53 PM 23.0 °F 8.7 °F 19.0 °F 85% 29.65 in 7.0 mi North 18.4 mph 28.8 mph N/A   Overcast
8:31 PM 23.0 °F 8.0 °F 19.4 °F 86% 29.51 in 2.5 mi North 20.7 mph 29.9 mph 0.00 in Snow Light Snow
8:38 PM 23.0 °F 8.3 °F 19.4 °F 86% 29.51 in 4.0 mi North 19.6 mph 29.9 mph 0.00 in Snow Light Snow
8:53 PM 23.0 °F - 19.0 °F 85% 29.63 in 4.0 mi North - - 0.00 in Snow Light Snow
9:31 PM 23.0 °F 8.7 °F 19.4 °F 86% 29.52 in 2.5 mi NNW 18.4 mph 31.1 mph 0.00 in Snow Light Snow
9:53 PM 23.0 °F 10.6 °F 19.0 °F 85% 29.61 in 2.0 mi North 13.8 mph 23.0 mph 0.00 in Snow Light Snow
9:59 PM 23.0 °F 9.2 °F 19.4 °F 86% 29.51 in 1.8 mi North 17.3 mph 23.0 mph 0.00 in Snow Light Snow
10:18 PM 23.0 °F 9.6 °F 19.4 °F 86% 29.51 in 1.8 mi NNW 16.1 mph 23.0 mph 0.01 in Snow Light Snow
10:33 PM 23.0 °F 9.6 °F 19.4 °F 86% 29.51 in 2.0 mi NNW 16.1 mph 23.0 mph 0.01 in Snow Light Snow
10:53 PM 23.0 °F 9.6 °F 19.0 °F 85% 29.61 in 1.5 mi NNW 16.1 mph 23.0 mph 0.01 in Snow Light Snow
11:29 PM 23.0 °F 9.6 °F 19.4 °F 86% 29.52 in 1.5 mi North 16.1 mph 21.9 mph 0.00 in Snow Light Snow
11:39 PM 23.0 °F 8.7 °F 19.4 °F 86% 29.52 in 3.0 mi NNW 18.4 mph 26.5 mph 0.00 in Snow Light Snow
11:48 PM 23.0 °F 9.6 °F 19.4 °F 86% 29.53 in 2.0 mi NNW 16.1 mph 26.5 mph 0.00 in Snow Light Snow
11:53 PM 23.0 °F 9.6 °F 19.0 °F 85% 29.62 in 1.5 mi NNW 16.1 mph 24.2 mph 0.00 in Snow Light Snow